Hourly Weather Rudka

Today, 23 April, Friday

Time Temperature Precipitation Wind Pressure Humidity
00:00 +3°C° 0 mm 3 mps 748 mmHg 76%
01:00 +2°C° 0 mm 3 mps 748 mmHg 78%
02:00 0°C° 0 mm 4 mps 748 mmHg 80%
03:00 0°C° 0 mm 4 mps 748 mmHg 82%
04:00 0°C° 0 mm 3 mps 748 mmHg 83%
05:00 0°C° 0 mm 3 mps 749 mmHg 85%
06:00 0°C° 0 mm 4 mps 749 mmHg 78%
07:00 +1°C° 0 mm 5 mps 749 mmHg 72%
08:00 +3°C° 0 mm 5 mps 749 mmHg 65%
09:00 +3°C° 0 mm 6 mps 749 mmHg 62%
10:00 +4°C° 0 mm 6 mps 749 mmHg 60%
11:00 +4°C° 0 mm 6 mps 750 mmHg 57%
12:00 +5°C° 0.1 mm 6 mps 750 mmHg 56%
13:00 +5°C° 0.1 mm 6 mps 750 mmHg 54%
14:00 +7°C° 0.1 mm 6 mps 749 mmHg 53%
15:00 +5°C° 0.3 mm 6 mps 749 mmHg 57%
16:00 +5°C° 0.3 mm 6 mps 749 mmHg 61%
17:00 +5°C° 0.3 mm 7 mps 749 mmHg 65%
18:00 +4°C° 0.2 mm 6 mps 750 mmHg 67%
19:00 +3°C° 0.2 mm 5 mps 750 mmHg 69%
20:00 +3°C° 0.2 mm 4 mps 750 mmHg 71%
21:00 +1°C° 0 mm 4 mps 750 mmHg 74%
22:00 0°C° 0 mm 4 mps 750 mmHg 77%
23:00 -1°C° 0 mm 4 mps 751 mmHg 80%

Tomorrow, 24 April, Saturday

Time Temperature Precipitation Wind Pressure Humidity
00:00 -2°C° 0 mm 4 mps 751 mmHg 80%
01:00 -2°C° 0 mm 4 mps 751 mmHg 80%
02:00 -3°C° 0 mm 4 mps 751 mmHg 80%
03:00 -3°C° 0 mm 4 mps 751 mmHg 81%
04:00 -3°C° 0 mm 4 mps 751 mmHg 81%
05:00 -3°C° 0 mm 4 mps 751 mmHg 81%
06:00 -2°C° 0 mm 5 mps 751 mmHg 74%
07:00 0°C° 0 mm 5 mps 751 mmHg 68%
08:00 +1°C° 0 mm 5 mps 752 mmHg 61%
09:00 +2°C° 0 mm 6 mps 752 mmHg 54%
10:00 +4°C° 0 mm 6 mps 752 mmHg 47%
11:00 +5°C° 0 mm 6 mps 751 mmHg 40%
12:00 +5°C° 0 mm 6 mps 751 mmHg 38%
13:00 +6°C° 0 mm 5 mps 751 mmHg 37%
14:00 +7°C° 0 mm 5 mps 751 mmHg 36%
15:00 +7°C° 0 mm 5 mps 751 mmHg 41%
16:00 +6°C° 0 mm 5 mps 751 mmHg 46%
17:00 +6°C° 0 mm 5 mps 751 mmHg 51%
18:00 +4°C° 0.1 mm 4 mps 751 mmHg 59%
19:00 +3°C° 0.1 mm 3 mps 751 mmHg 66%
20:00 +3°C° 0.1 mm 2 mps 751 mmHg 73%
21:00 +2°C° 0 mm 2 mps 751 mmHg 74%
22:00 +2°C° 0 mm 2 mps 751 mmHg 76%
23:00 +1°C° 0 mm 2 mps 751 mmHg 77%

Day after tomorrow, 25 April, Sunday

Time Temperature Precipitation Wind Pressure Humidity
00:00 +1°C° 0.1 mm 2 mps 751 mmHg 82%
01:00 +1°C° 0.1 mm 2 mps 750 mmHg 87%
02:00 -1°C° 0.1 mm 3 mps 750 mmHg 93%
03:00 -1°C° 0.5 mm 3 mps 750 mmHg 94%
04:00 -1°C° 0.5 mm 3 mps 750 mmHg 95%
05:00 -1°C° 0.5 mm 3 mps 750 mmHg 96%
06:00 -2°C° 0 mm 4 mps 751 mmHg 88%
07:00 -1°C° 0 mm 4 mps 751 mmHg 81%
08:00 -1°C° 0 mm 5 mps 751 mmHg 74%
09:00 0°C° 0 mm 5 mps 751 mmHg 70%
10:00 +1°C° 0 mm 5 mps 751 mmHg 66%
11:00 +2°C° 0 mm 5 mps 751 mmHg 62%
12:00 +3°C° 0.2 mm 5 mps 751 mmHg 59%
13:00 +5°C° 0.2 mm 5 mps 751 mmHg 56%
14:00 +5°C° 0.2 mm 5 mps 751 mmHg 53%
15:00 +5°C° 0.2 mm 5 mps 751 mmHg 55%
16:00 +5°C° 0.2 mm 5 mps 750 mmHg 58%
17:00 +5°C° 0.2 mm 5 mps 750 mmHg 60%
18:00 +4°C° 0.1 mm 4 mps 750 mmHg 66%
19:00 +2°C° 0.1 mm 3 mps 750 mmHg 72%
20:00 +1°C° 0.1 mm 3 mps 750 mmHg 78%
21:00 0°C° 0 mm 3 mps 750 mmHg 81%
22:00 +1°C° 0 mm 2 mps 750 mmHg 84%
23:00 -1°C° 0 mm 2 mps 750 mmHg 87%

26 April, Monday

Time Temperature Precipitation Wind Pressure Humidity
00:00 -1°C° 0 mm 2 mps 750 mmHg 89%
01:00 -1°C° 0 mm 3 mps 750 mmHg 90%
02:00 -2°C° 0 mm 3 mps 750 mmHg 92%
03:00 -2°C° 0 mm 3 mps 750 mmHg 92%
04:00 -2°C° 0 mm 3 mps 750 mmHg 92%
05:00 -4°C° 0 mm 3 mps 750 mmHg 93%
06:00 -2°C° 0 mm 3 mps 750 mmHg 86%
07:00 -1°C° 0 mm 4 mps 750 mmHg 79%
08:00 0°C° 0 mm 4 mps 750 mmHg 72%
09:00 +1°C° 0.1 mm 5 mps 750 mmHg 65%
10:00 +2°C° 0.1 mm 5 mps 750 mmHg 58%
11:00 +3°C° 0.1 mm 5 mps 750 mmHg 51%
12:00 +3°C° 0.1 mm 5 mps 749 mmHg 49%
13:00 +5°C° 0.1 mm 5 mps 749 mmHg 48%
14:00 +5°C° 0.1 mm 5 mps 749 mmHg 47%
15:00 +5°C° 0.1 mm 5 mps 749 mmHg 49%
16:00 +5°C° 0.1 mm 5 mps 748 mmHg 51%
17:00 +5°C° 0.1 mm 5 mps 748 mmHg 54%
18:00 +4°C° 0.1 mm 4 mps 748 mmHg 62%
19:00 +2°C° 0.1 mm 3 mps 748 mmHg 71%
20:00 +1°C° 0.1 mm 3 mps 748 mmHg 80%
21:00 0°C° 0 mm 3 mps 748 mmHg 83%
22:00 0°C° 0 mm 3 mps 748 mmHg 86%
23:00 -1°C° 0 mm 3 mps 748 mmHg 88%

27 April, Tuesday

Time Temperature Precipitation Wind Pressure Humidity
00:00 -1°C° 0 mm 3 mps 748 mmHg 89%
01:00 -1°C° 0 mm 2 mps 748 mmHg 89%
02:00 -2°C° 0 mm 2 mps 748 mmHg 89%
03:00 -1°C° 0 mm 2 mps 748 mmHg 89%
04:00 -1°C° 0 mm 2 mps 748 mmHg 88%
05:00 -1°C° 0 mm 2 mps 748 mmHg 88%
06:00 +1°C° 0 mm 2 mps 748 mmHg 81%
07:00 +3°C° 0 mm 2 mps 748 mmHg 75%
08:00 +4°C° 0 mm 2 mps 748 mmHg 68%
09:00 +5°C° 0 mm 2 mps 748 mmHg 61%
10:00 +6°C° 0 mm 2 mps 748 mmHg 54%
11:00 +7°C° 0 mm 2 mps 748 mmHg 47%
12:00 +8°C° 0 mm 2 mps 748 mmHg 45%
13:00 +9°C° 0 mm 2 mps 747 mmHg 44%
14:00 +10°C° 0 mm 2 mps 747 mmHg 43%
15:00 +11°C° 0 mm 1 mps 747 mmHg 43%
16:00 +11°C° 0 mm 1 mps 747 mmHg 43%
17:00 +11°C° 0 mm 1 mps 747 mmHg 43%
18:00 +9°C° 0 mm 1 mps 747 mmHg 49%
19:00 +7°C° 0 mm 2 mps 746 mmHg 55%
20:00 +5°C° 0 mm 2 mps 746 mmHg 61%
21:00 +5°C° 0 mm 2 mps 746 mmHg 64%
22:00 +3°C° 0 mm 3 mps 746 mmHg 66%
23:00 +3°C° 0 mm 3 mps 746 mmHg 69%

28 April, Wednesday

Time Temperature Precipitation Wind Pressure Humidity
00:00 +3°C° 0 mm 3 mps 745 mmHg 69%
01:00 +3°C° 0 mm 3 mps 745 mmHg 69%
02:00 +3°C° 0 mm 4 mps 745 mmHg 69%
03:00 +3°C° 0 mm 4 mps 744 mmHg 70%
04:00 +3°C° 0 mm 4 mps 744 mmHg 71%
05:00 +4°C° 0 mm 4 mps 743 mmHg 72%
06:00 +3°C° 0.8 mm 5 mps 743 mmHg 79%
07:00 +3°C° 0.8 mm 5 mps 743 mmHg 86%
08:00 +3°C° 0.8 mm 6 mps 742 mmHg 93%
09:00 +3°C° 0.2 mm 5 mps 742 mmHg 93%
10:00 +3°C° 0.2 mm 5 mps 742 mmHg 94%
11:00 +4°C° 0.2 mm 4 mps 741 mmHg 95%
12:00 +5°C° 0 mm 4 mps 741 mmHg 94%
13:00 +6°C° 0 mm 4 mps 741 mmHg 94%
14:00 +8°C° 0 mm 3 mps 741 mmHg 93%
15:00 +9°C° 0 mm 3 mps 740 mmHg 93%
16:00 +9°C° 0 mm 3 mps 740 mmHg 93%
17:00 +10°C° 0 mm 2 mps 740 mmHg 92%
18:00 +10°C° 0.1 mm 2 mps 740 mmHg 94%
19:00 +9°C° 0.1 mm 2 mps 740 mmHg 95%
20:00 +9°C° 0.1 mm 3 mps 739 mmHg 96%
21:00 +9°C° 0.1 mm 3 mps 739 mmHg 96%
22:00 +8°C° 0.1 mm 4 mps 739 mmHg 96%
23:00 +10°C° 0.1 mm 4 mps 738 mmHg 96%
Show more